Regional Weather Roundup
Issued by NWS

Home | Current Version | Previous Version | Text Only | Print | Product List | Glossary On
Versions: 1 2 3 4 5 6 7 8 9 10 11 12 13 14 15 16 17 18 19 20 21 22 23 24 25 26 27 28 29 30 31 32 33 34 35 36 37 38 39 40 41 42 43 44 45 46 47 48 49 50
000
ASUS43 KLMK 040502
RWRKY
KENTUCKY REGIONAL WEATHER ROUNDUP
NATIONAL WEATHER SERVICE LOUISVILLE KY
100 AM EDT SAT JUL 04 2015

NOTE "FAIR" INDICATES FEW OR NO CLOUDS BELOW 12,000 FEET
WITH NO SIGNIFICANT WEATHER AND/OR OBSTRUCTIONS TO VISIBILITY.

KYZ001>023-026-027-061>063-070>075-040600-
WESTERN AND SOUTH CENTRAL KENTUCKY

CITY           SKY/WX    TMP DP  RH WIND       PRES   REMARKS
PADUCAH        CLOUDY    71  68  90 CALM      29.91R
HENDERSON      CLEAR     70  64  83 CALM      29.90R
OWENSBORO      NOT AVBL
HOPKINSVILLE   MOCLDY    70  69  95 SW5       29.93R
BOWLING GREEN  CLOUDY    71  68  90 S5        29.92S
GLASGOW        NOT AVBL
$$

KYZ024-025-028>034-038-045-046-053-040600-
NORTH CENTRAL KENTUCKY

CITY           SKY/WX    TMP DP  RH WIND       PRES   REMARKS
LOUISVILLE/SDF CLOUDY    73  69  87 CALM      29.89S FOG
LOUISVILLE/LOU CLOUDY    72  69  90 N3        29.90S FOG
FORT KNOX      CLOUDY    68  68 100 S3        29.89S
$$

KYZ035>037-039>044-047>052-055>060-089>105-040600-
NORTHEAST KENTUCKY

CITY           SKY/WX    TMP DP  RH WIND       PRES   REMARKS
LEXINGTON      FOG       67  66  97 NW3       29.90S VSB 1/2
COVINGTON      CLOUDY    69  63  81 N5        29.91S
FRANKFORT      CLOUDY    69  67  93 N3        29.89F FOG
$$

KYZ054-064>069-076>088-106>120-040600-
SOUTHEAST KENTUCKY

CITY           SKY/WX    TMP DP  RH WIND       PRES   REMARKS
JACKSON        CLOUDY    67  65  93 CALM      29.92S FOG
LONDON         MOCLDY    69  64  84 SW8       29.94R
SOMERSET       NOT AVBL
MIDDLESBORO    NOT AVBL
MONTICELLO     MOCLDY    70  70 100 SW7       29.98R
$$




USA.gov is the U.S. government's official web portal to all federal, state and local government web resources and services.